軌道要素
Epoch 1998 Dec. 13.0 TT = JDT 2451160.5
T 1998 Dec. 17.81345 TT MPC
q 2.5188493 (2000.0) P Q
n 0.06506106 Peri. 318.98354 +0.57360106 -0.70816247
a 6.1224039 Node 91.83125 +0.81696615 +0.45803199
e 0.5885849 Incl. 24.32420 +0.05956622 +0.53731984
P 15.1
From 149 observations 1998 Sept. 23-2013 July 26, mean residual 0".7.
|